Time,TemperatureF,DewpointF,PressureIn,WindDirection,WindDirectionDegrees,WindSpeedMPH,WindSpeedGustMPH,Humidity,HourlyPrecipIn,Conditions,Clouds,dailyrainin,SoftwareType,DateUTC
2013-08-29 00:01:00,71.1,70.5,29.97,NW,320,0.0,0.0,98,0.00,,OVC019,0.00,VWS V14.00,2013-08-29 04:01:00,
2013-08-29 00:02:00,71.1,70.5,29.97,NW,320,0.0,0.0,98,0.00,,OVC019,0.00,VWS V14.00,2013-08-29 04:02:00,
2013-08-29 00:04:00,70.9,70.3,29.97,SSW,206,0.0,3.2,98,0.00,,OVC019,0.00,VWS V14.00,2013-08-29 04:04:00,
2013-08-29 00:09:00,70.9,70.3,29.97,South,175,0.0,0.0,98,0.00,,OVC019,0.00,VWS V14.00,2013-08-29 04:09:00,
2013-08-29 00:15:00,70.7,70.1,29.97,South,175,0.0,0.0,98,0.00,,OVC019,0.00,VWS V14.00,2013-08-29 04:15:00,
2013-08-29 00:20:00,70.7,70.1,29.97,South,175,0.0,0.0,98,0.00,,OVC017,0.00,VWS V14.00,2013-08-29 04:20:00,
2013-08-29 00:25:00,70.7,70.1,29.97,South,175,0.0,0.0,98,0.00,,OVC017,0.00,VWS V14.00,2013-08-29 04:25:00,
2013-08-29 00:30:00,70.5,69.9,29.97,ENE,63,0.0,0.0,98,0.00,,OVC017,0.00,VWS V14.00,2013-08-29 04:30:00,
2013-08-29 00:35:00,70.5,69.9,29.97,NW,310,0.0,0.0,98,0.00,,OVC015,0.00,VWS V14.00,2013-08-29 04:35:00,
2013-08-29 00:40:00,70.7,70.1,29.97,WNW,288,0.0,2.7,98,0.00,,OVC015,0.00,VWS V14.00,2013-08-29 04:40:00,
2013-08-29 00:45:00,71.1,70.5,29.97,NW,326,0.0,4.8,98,0.00,,OVC015,0.00,VWS V14.00,2013-08-29 04:45:00,
2013-08-29 00:50:00,71.8,71.2,29.97,NNW,327,4.4,7.0,98,0.00,,OVC015,0.00,VWS V14.00,2013-08-29 04:50:00,
2013-08-29 00:55:00,71.3,70.7,29.97,NW,305,0.0,3.2,98,0.00,,OVC015,0.00,VWS V14.00,2013-08-29 04:55:00,
2013-08-29 01:00:00,71.1,70.5,29.97,West,270,0.0,4.3,98,0.00,,OVC013,0.00,VWS V14.00,2013-08-29 05:00:00,
2013-08-29 01:05:00,70.9,70.3,29.97,WNW,287,0.0,0.0,98,0.00,,OVC013,0.00,VWS V14.00,2013-08-29 05:05:00,
2013-08-29 01:10:00,71.1,70.5,29.97,SSW,196,3.4,3.8,98,0.00,,OVC013,0.00,VWS V14.00,2013-08-29 05:10:00,
2013-08-29 01:15:00,71.3,70.7,29.97,WNW,282,0.0,2.7,98,0.00,,OVC013,0.00,VWS V14.00,2013-08-29 05:15:00,
2013-08-29 01:20:00,71.4,70.9,29.97,West,270,0.0,0.0,98,0.00,,OVC013,0.00,VWS V14.00,2013-08-29 05:20:00,
2013-08-29 01:25:00,71.3,70.7,29.97,West,261,3.0,3.2,98,0.00,,OVC013,0.00,VWS V14.00,2013-08-29 05:25:00,
2013-08-29 01:30:00,71.6,71.0,29.94,SW,230,3.0,4.8,98,0.00,,OVC013,0.00,VWS V14.00,2013-08-29 05:30:00,
2013-08-29 01:35:00,71.8,71.2,29.94,WNW,303,5.9,7.0,98,0.00,,OVC013,0.00,VWS V14.00,2013-08-29 05:35:00,
2013-08-29 01:40:00,72.2,71.3,29.94,NW,306,3.0,4.3,97,0.00,,OVC013,0.00,VWS V14.00,2013-08-29 05:40:00,
2013-08-29 01:45:00,71.4,70.6,29.97,NW,306,0.0,0.0,97,0.00,,OVC013,0.00,VWS V14.00,2013-08-29 05:45:00,
2013-08-29 01:51:00,71.3,70.4,29.97,ESE,109,3.0,3.2,97,0.00,,OVC013,0.00,VWS V14.00,2013-08-29 05:51:00,
2013-08-29 01:56:00,71.1,70.5,29.97,SSE,156,0.0,0.0,98,0.00,,OVC013,0.00,VWS V14.00,2013-08-29 05:56:00,
2013-08-29 02:01:00,71.3,70.7,29.94,SE,134,3.4,4.3,98,0.00,,,0.00,VWS V14.00,2013-08-29 06:01:00,
2013-08-29 02:06:00,71.4,70.9,29.94,NW,320,0.0,4.3,98,0.00,,,0.00,VWS V14.00,2013-08-29 06:06:00,
2013-08-29 02:11:00,71.4,70.9,29.94,SSW,207,0.0,0.0,98,0.00,,,0.00,VWS V14.00,2013-08-29 06:11:00,
2013-08-29 02:16:00,71.1,70.5,29.94,ENE,67,0.0,0.0,98,0.00,,,0.00,VWS V14.00,2013-08-29 06:16:00,
2013-08-29 02:21:00,70.9,70.3,29.94,ESE,110,0.0,0.0,98,0.00,,,0.00,VWS V14.00,2013-08-29 06:21:00,
2013-08-29 02:26:00,70.9,70.3,29.94,ESE,110,0.0,0.0,98,0.00,,,0.00,VWS V14.00,2013-08-29 06:26:00,
2013-08-29 02:31:00,70.7,70.1,29.97,ENE,69,0.0,0.0,98,0.00,,,0.00,VWS V14.00,2013-08-29 06:31:00,
2013-08-29 02:36:00,70.7,70.1,29.97,ENE,69,0.0,0.0,98,0.00,,,0.00,VWS V14.00,2013-08-29 06:36:00,
2013-08-29 02:41:00,70.7,70.1,29.97,ENE,69,0.0,0.0,98,0.00,,,0.00,VWS V14.00,2013-08-29 06:41:00,
2013-08-29 02:46:00,70.5,69.9,29.97,ENE,69,0.0,0.0,98,0.00,,,0.00,VWS V14.00,2013-08-29 06:46:00,
2013-08-29 02:51:00,70.5,69.9,29.97,ENE,69,0.0,0.0,98,0.00,,,0.00,VWS V14.00,2013-08-29 06:51:00,
2013-08-29 02:56:00,70.3,69.8,29.97,ENE,69,0.0,0.0,98,0.00,,,0.00,VWS V14.00,2013-08-29 06:56:00,
2013-08-29 03:01:00,70.3,69.8,29.97,ENE,69,0.0,0.0,98,0.00,,,0.00,VWS V14.00,2013-08-29 07:01:00,
2013-08-29 03:06:00,70.3,69.8,29.97,ENE,69,0.0,0.0,98,0.00,,,0.00,VWS V14.00,2013-08-29 07:06:00,
2013-08-29 03:11:00,70.3,69.8,29.97,ENE,69,0.0,0.0,98,0.00,,,0.00,VWS V14.00,2013-08-29 07:11:00,
2013-08-29 03:17:00,70.5,69.9,29.97,ENE,69,0.0,0.0,98,0.00,,,0.00,VWS V14.00,2013-08-29 07:17:00,
2013-08-29 03:22:00,70.3,69.8,29.97,ENE,69,0.0,0.0,98,0.00,,,0.00,VWS V14.00,2013-08-29 07:22:00,
2013-08-29 03:27:00,70.3,69.8,29.97,ENE,69,0.0,0.0,98,0.00,,,0.00,VWS V14.00,2013-08-29 07:27:00,
2013-08-29 03:32:00,70.3,69.8,29.97,ENE,69,0.0,0.0,98,0.00,,,0.00,VWS V14.00,2013-08-29 07:32:00,
2013-08-29 03:37:00,70.3,69.8,29.97,ENE,69,0.0,0.0,98,0.00,,,0.00,VWS V14.00,2013-08-29 07:37:00,
2013-08-29 07:49:00,70.2,69.6,30.03,South,186,0.0,0.0,98,0.00,,,0.02,VWS V14.00,2013-08-29 11:49:00,
2013-08-29 07:54:00,70.2,69.6,30.03,South,186,0.0,0.0,98,0.00,,,0.02,VWS V14.00,2013-08-29 11:54:00,
2013-08-29 07:59:00,70.3,69.8,30.03,South,186,0.0,0.0,98,0.00,,,0.02,VWS V14.00,2013-08-29 11:59:00,
2013-08-29 08:04:00,70.3,69.8,30.03,South,186,0.0,0.0,98,0.00,,,0.02,VWS V14.00,2013-08-29 12:04:00,
2013-08-29 08:09:00,70.5,69.9,30.03,South,186,0.0,0.0,98,0.00,,,0.02,VWS V14.00,2013-08-29 12:09:00,
2013-08-29 08:14:00,70.7,70.1,30.03,South,186,0.0,0.0,98,0.00,,,0.02,VWS V14.00,2013-08-29 12:14:00,
2013-08-29 08:19:00,70.7,70.1,30.03,South,186,0.0,0.0,98,0.00,,,0.02,VWS V14.00,2013-08-29 12:19:00,
2013-08-29 08:24:00,70.7,70.1,30.03,WSW,253,0.0,0.0,98,0.00,,,0.02,VWS V14.00,2013-08-29 12:24:00,
2013-08-29 08:29:00,70.7,70.1,30.03,WSW,253,0.0,0.0,98,0.00,,,0.02,VWS V14.00,2013-08-29 12:29:00,
2013-08-29 08:34:00,70.9,70.3,30.03,WSW,253,0.0,0.0,98,0.00,,,0.02,VWS V14.00,2013-08-29 12:34:00,
2013-08-29 08:39:00,70.9,70.3,30.03,WSW,253,0.0,0.0,98,0.00,,,0.02,VWS V14.00,2013-08-29 12:39:00,
2013-08-29 08:44:00,70.9,70.3,30.03,WSW,253,0.0,0.0,98,0.00,,,0.02,VWS V14.00,2013-08-29 12:44:00,
2013-08-29 08:49:00,71.1,70.5,30.03,WSW,253,0.0,0.0,98,0.00,,,0.02,VWS V14.00,2013-08-29 12:49:00,
2013-08-29 08:54:00,71.3,70.7,30.03,WSW,253,0.0,0.0,98,0.00,,,0.02,VWS V14.00,2013-08-29 12:54:00,
2013-08-29 08:59:00,71.4,70.9,30.03,WSW,253,0.0,0.0,98,0.00,,,0.02,VWS V14.00,2013-08-29 12:59:00,
2013-08-29 09:04:00,71.4,70.9,30.03,SSW,198,0.0,0.0,98,0.00,,,0.02,VWS V14.00,2013-08-29 13:04:00,
2013-08-29 09:10:00,71.4,70.9,30.03,SSW,198,0.0,0.0,98,0.00,,,0.02,VWS V14.00,2013-08-29 13:10:00,
2013-08-29 09:15:00,71.6,71.0,30.03,SSW,198,0.0,0.0,98,0.00,,,0.02,VWS V14.00,2013-08-29 13:15:00,
2013-08-29 09:20:00,71.8,71.2,30.06,SSW,203,0.0,0.0,98,0.00,,,0.02,VWS V14.00,2013-08-29 13:20:00,
2013-08-29 09:25:00,71.8,71.2,30.06,SSW,203,0.0,0.0,98,0.00,,,0.02,VWS V14.00,2013-08-29 13:25:00,
2013-08-29 09:30:00,71.8,71.2,30.06,SSW,203,0.0,0.0,98,0.00,,,0.02,VWS V14.00,2013-08-29 13:30:00,
2013-08-29 09:35:00,72.2,71.6,30.03,SSW,203,0.0,0.0,98,0.00,,,0.02,VWS V14.00,2013-08-29 13:35:00,
2013-08-29 09:40:00,72.4,71.8,30.03,NW,322,0.0,0.0,98,0.00,,,0.02,VWS V14.00,2013-08-29 13:40:00,
2013-08-29 09:45:00,72.4,71.8,30.03,NW,322,0.0,0.0,98,0.00,,,0.02,VWS V14.00,2013-08-29 13:45:00,
2013-08-29 09:50:00,72.6,72.0,30.06,SSW,212,0.0,0.0,98,0.00,,,0.02,VWS V14.00,2013-08-29 13:50:00,
2013-08-29 09:55:00,72.8,72.2,30.06,South,184,0.0,3.8,98,0.00,,,0.02,VWS V14.00,2013-08-29 13:55:00,
2013-08-29 10:00:00,73.1,72.5,30.06,South,184,0.0,0.0,98,0.00,,OVC018,0.02,VWS V14.00,2013-08-29 14:00:00,
2013-08-29 10:05:00,73.3,72.7,30.06,NW,317,0.0,0.0,98,0.00,,OVC018,0.02,VWS V14.00,2013-08-29 14:05:00,
2013-08-29 10:10:00,73.5,72.9,30.06,WNW,289,0.0,0.0,98,0.00,,OVC018,0.02,VWS V14.00,2013-08-29 14:10:00,
2013-08-29 10:15:00,73.9,73.3,30.06,SSW,198,3.0,4.3,98,0.00,,OVC018,0.02,VWS V14.00,2013-08-29 14:15:00,
2013-08-29 10:20:00,73.9,73.3,30.06,WSW,246,0.0,0.0,98,0.00,,OVC018,0.02,VWS V14.00,2013-08-29 14:20:00,
2013-08-29 10:25:00,73.7,73.1,30.06,West,276,0.0,0.0,98,0.00,,OVC018,0.02,VWS V14.00,2013-08-29 14:25:00,
2013-08-29 10:30:00,73.7,73.1,30.06,NNW,329,0.0,0.0,98,0.00,,OVC021,0.02,VWS V14.00,2013-08-29 14:30:00,
2013-08-29 10:36:00,73.5,72.9,30.06,NNW,329,0.0,0.0,98,0.00,,OVC021,0.02,VWS V14.00,2013-08-29 14:36:00,
2013-08-29 10:41:00,73.9,73.0,30.06,WNW,289,0.0,3.2,97,0.00,,OVC021,0.02,VWS V14.00,2013-08-29 14:41:00,
2013-08-29 10:46:00,74.1,72.8,30.06,NW,307,2.5,2.7,96,0.00,,OVC021,0.02,VWS V14.00,2013-08-29 14:46:00,
2013-08-29 10:51:00,74.2,73.3,30.06,East,95,3.4,4.3,97,0.00,,OVC021,0.02,VWS V14.00,2013-08-29 14:51:00,
2013-08-29 10:56:00,74.6,73.7,30.06,SE,132,3.0,3.2,97,0.00,,OVC021,0.02,VWS V14.00,2013-08-29 14:56:00,
2013-08-29 11:01:00,74.6,73.7,30.06,SSE,164,0.0,3.2,97,0.00,,BKN028,0.02,VWS V14.00,2013-08-29 15:01:00,
2013-08-29 11:06:00,74.8,73.9,30.06,SSW,193,4.4,4.8,97,0.00,,BKN028,0.02,VWS V14.00,2013-08-29 15:06:00,
2013-08-29 11:11:00,74.8,73.6,30.06,ESE,117,2.5,3.2,96,0.00,,BKN028,0.02,VWS V14.00,2013-08-29 15:11:00,
2013-08-29 11:16:00,75.0,72.8,30.06,SSE,155,2.5,3.2,93,0.00,,BKN060,0.02,VWS V14.00,2013-08-29 15:16:00,
2013-08-29 11:21:00,75.2,71.7,30.06,South,184,2.5,4.3,89,0.00,,BKN060,0.02,VWS V14.00,2013-08-29 15:21:00,
2013-08-29 11:26:00,75.3,71.6,30.06,SSE,152,0.0,0.0,88,0.00,,BKN060,0.02,VWS V14.00,2013-08-29 15:26:00,
2013-08-29 11:31:00,75.5,71.4,30.06,ESE,123,0.0,3.8,87,0.00,,BKN060,0.02,VWS V14.00,2013-08-29 15:31:00,
2013-08-29 11:36:00,75.7,70.9,30.06,WNW,290,3.9,4.3,85,0.00,,BKN060,0.02,VWS V14.00,2013-08-29 15:36:00,
2013-08-29 11:41:00,76.1,70.9,30.06,ESE,106,3.0,4.3,84,0.00,,BKN060,0.02,VWS V14.00,2013-08-29 15:41:00,
2013-08-29 11:46:00,76.1,70.6,30.06,East,90,3.9,4.3,83,0.00,,BKN060,0.02,VWS V14.00,2013-08-29 15:46:00,
2013-08-29 11:51:00,76.6,70.7,30.06,West,262,3.4,3.8,82,0.00,,BKN060,0.02,VWS V14.00,2013-08-29 15:51:00,
2013-08-29 11:56:00,76.6,70.7,30.06,ENE,76,3.4,3.8,82,0.00,,BKN060,0.02,VWS V14.00,2013-08-29 15:56:00,
2013-08-29 12:01:00,77.6,68.6,30.06,West,280,2.5,5.9,74,0.00,,FEW016,0.02,VWS V14.00,2013-08-29 16:01:00,
2013-08-29 12:07:00,77.8,70.7,30.06,SSE,157,3.0,3.2,79,0.00,,FEW016,0.02,VWS V14.00,2013-08-29 16:07:00,
2013-08-29 12:12:00,78.1,70.3,30.06,WNW,282,4.4,4.8,77,0.00,,FEW016,0.02,VWS V14.00,2013-08-29 16:12:00,
2013-08-29 12:17:00,77.9,68.2,30.06,NNW,337,2.5,3.2,72,0.00,,FEW016,0.02,VWS V14.00,2013-08-29 16:17:00,
2013-08-29 12:22:00,78.3,66.9,30.06,NE,42,3.9,4.3,68,0.00,,FEW016,0.02,VWS V14.00,2013-08-29 16:22:00,
2013-08-29 12:27:00,78.7,68.5,30.06,NW,315,4.4,5.9,71,0.00,,FEW016,0.02,VWS V14.00,2013-08-29 16:27:00,
2013-08-29 12:32:00,78.7,67.7,30.06,South,179,3.0,4.8,69,0.00,,OVC050,0.02,VWS V14.00,2013-08-29 16:32:00,
2013-08-29 12:37:00,78.7,67.2,30.06,South,172,0.0,2.7,68,0.00,,OVC050,0.02,VWS V14.00,2013-08-29 16:37:00,
2013-08-29 12:42:00,77.9,67.0,30.06,NW,312,2.5,2.7,69,0.00,,OVC050,0.02,VWS V14.00,2013-08-29 16:42:00,
2013-08-29 12:47:00,77.6,67.0,30.06,East,80,0.0,0.0,70,0.00,,OVC050,0.02,VWS V14.00,2013-08-29 16:47:00,
2013-08-29 12:52:00,78.7,67.7,30.06,WSW,254,2.5,2.7,69,0.00,,OVC050,0.02,VWS V14.00,2013-08-29 16:52:00,
2013-08-29 12:57:00,77.8,67.2,30.06,ESE,118,0.0,2.7,70,0.00,,OVC050,0.02,VWS V14.00,2013-08-29 16:57:00,
2013-08-29 13:02:00,77.6,67.4,30.06,South,186,0.0,0.0,71,0.00,,BKN049,0.02,VWS V14.00,2013-08-29 17:02:00,
2013-08-29 13:07:00,78.5,69.1,30.06,ENE,59,2.5,3.8,73,0.00,,BKN049,0.02,VWS V14.00,2013-08-29 17:07:00,
2013-08-29 13:12:00,79.2,69.0,30.06,ENE,72,0.0,3.2,71,0.00,,BKN049,0.02,VWS V14.00,2013-08-29 17:12:00,
2013-08-29 13:17:00,79.8,68.7,30.06,East,86,3.0,4.8,69,0.00,,BKN049,0.02,VWS V14.00,2013-08-29 17:17:00,
2013-08-29 13:22:00,80.0,68.1,30.06,SSW,203,0.0,0.0,67,0.00,,BKN049,0.02,VWS V14.00,2013-08-29 17:22:00,
2013-08-29 13:28:00,80.7,67.4,30.06,SSE,151,3.4,3.8,64,0.00,,BKN049,0.02,VWS V14.00,2013-08-29 17:28:00,
2013-08-29 13:33:00,80.7,68.3,30.06,South,182,3.9,4.3,66,0.00,,BKN049,0.02,VWS V14.00,2013-08-29 17:33:00,
2013-08-29 13:38:00,81.3,68.4,30.06,SW,227,2.5,3.8,65,0.00,,BKN049,0.02,VWS V14.00,2013-08-29 17:38:00,
2013-08-29 13:43:00,81.3,68.8,30.06,SSE,148,3.0,3.2,66,0.00,,BKN049,0.02,VWS V14.00,2013-08-29 17:43:00,
2013-08-29 13:48:00,81.5,69.0,30.03,South,185,0.0,3.2,66,0.00,,BKN049,0.02,VWS V14.00,2013-08-29 17:48:00,
2013-08-29 13:53:00,81.8,68.9,30.03,WNW,291,0.0,2.7,65,0.00,,BKN049,0.02,VWS V14.00,2013-08-29 17:53:00,
2013-08-29 13:58:00,82.0,67.7,30.03,NNW,336,3.4,3.8,62,0.00,,BKN049,0.02,VWS V14.00,2013-08-29 17:58:00,
2013-08-29 14:03:00,82.4,67.6,30.06,West,268,2.5,3.8,61,0.00,,SCT036,0.02,VWS V14.00,2013-08-29 18:03:00,
2013-08-29 14:08:00,82.8,68.4,30.06,West,277,3.4,3.8,62,0.00,,SCT036,0.02,VWS V14.00,2013-08-29 18:08:00,
2013-08-29 14:13:00,82.6,69.2,30.06,East,86,2.5,3.2,64,0.00,,SCT036,0.02,VWS V14.00,2013-08-29 18:13:00,
2013-08-29 14:18:00,82.6,69.2,30.06,ESE,105,3.0,3.2,64,0.00,,SCT036,0.02,VWS V14.00,2013-08-29 18:18:00,
2013-08-29 14:23:00,82.8,69.8,30.06,ESE,103,2.5,2.7,65,0.00,,SCT036,0.02,VWS V14.00,2013-08-29 18:23:00,
2013-08-29 14:28:00,83.3,68.0,30.06,East,90,2.5,3.2,60,0.00,,SCT036,0.02,VWS V14.00,2013-08-29 18:28:00,
2013-08-29 14:33:00,83.7,66.8,30.03,SSW,200,3.0,3.2,57,0.00,,SCT036,0.02,VWS V14.00,2013-08-29 18:33:00,
2013-08-29 14:38:00,84.1,65.6,30.03,WNW,302,3.4,4.3,54,0.00,,SCT036,0.02,VWS V14.00,2013-08-29 18:38:00,
2013-08-29 14:44:00,84.6,65.1,30.03,NNW,328,3.4,4.8,52,0.00,,SCT036,0.02,VWS V14.00,2013-08-29 18:44:00,
2013-08-29 14:49:00,84.8,64.1,30.03,NW,314,0.0,3.2,50,0.00,,SCT036,0.02,VWS V14.00,2013-08-29 18:49:00,
2013-08-29 14:54:00,85.2,67.2,30.03,West,281,0.0,3.2,55,0.00,,SCT036,0.02,VWS V14.00,2013-08-29 18:54:00,
2013-08-29 14:59:00,85.4,68.9,30.03,WSW,240,0.0,2.7,58,0.00,,SCT036,0.02,VWS V14.00,2013-08-29 18:59:00,
2013-08-29 15:04:00,84.4,66.5,30.03,NW,321,4.4,4.8,55,0.00,,FEW027,0.02,VWS V14.00,2013-08-29 19:04:00,
2013-08-29 15:09:00,85.2,66.7,30.03,NE,54,0.0,2.7,54,0.00,,FEW027,0.02,VWS V14.00,2013-08-29 19:09:00,
2013-08-29 15:14:00,85.4,67.9,30.03,WNW,293,0.0,2.7,56,0.00,,FEW027,0.02,VWS V14.00,2013-08-29 19:14:00,
2013-08-29 15:19:00,85.5,65.4,30.03,WNW,301,2.5,3.8,51,0.00,,FEW027,0.02,VWS V14.00,2013-08-29 19:19:00,
2013-08-29 15:24:00,86.5,65.1,30.03,SW,220,0.0,3.2,49,0.00,,FEW027,0.02,VWS V14.00,2013-08-29 19:24:00,
2013-08-29 15:29:00,86.1,65.9,30.03,North,353,0.0,0.0,51,0.00,,FEW027,0.02,VWS V14.00,2013-08-29 19:29:00,
2013-08-29 15:34:00,86.1,65.9,30.03,East,79,3.9,4.3,51,0.00,,FEW027,0.02,VWS V14.00,2013-08-29 19:34:00,
2013-08-29 15:39:00,86.1,64.7,30.03,SSE,153,2.5,2.7,49,0.00,,FEW027,0.02,VWS V14.00,2013-08-29 19:39:00,
2013-08-29 15:44:00,86.3,62.5,30.03,NW,312,0.0,3.8,45,0.00,,FEW027,0.02,VWS V14.00,2013-08-29 19:44:00,
2013-08-29 15:49:00,86.7,65.8,30.03,NNW,344,3.4,3.8,50,0.00,,FEW027,0.02,VWS V14.00,2013-08-29 19:49:00,
2013-08-29 15:54:00,85.0,64.8,30.03,NW,307,0.0,0.0,51,0.00,,FEW027,0.02,VWS V14.00,2013-08-29 19:54:00,
2013-08-29 15:59:00,84.2,64.7,30.03,SSW,194,0.0,2.7,52,0.00,,FEW027,0.00,VWS V14.00,2013-08-29 19:59:00,
2013-08-29 16:05:00,83.5,64.6,30.03,SSW,194,0.0,0.0,53,0.00,,BKN038,0.02,VWS V14.00,2013-08-29 20:05:00,
2013-08-29 16:10:00,84.2,65.3,30.03,ESE,117,0.0,0.0,53,0.00,,BKN038,0.02,VWS V14.00,2013-08-29 20:10:00,
2013-08-29 16:15:00,85.0,65.4,30.03,ESE,108,3.4,3.8,52,0.00,,BKN038,0.02,VWS V14.00,2013-08-29 20:15:00,
2013-08-29 16:20:00,85.7,65.5,30.03,NNW,327,4.4,6.4,51,0.00,,BKN038,0.02,VWS V14.00,2013-08-29 20:20:00,
2013-08-29 16:25:00,86.1,66.4,30.03,ENE,71,3.4,3.8,52,0.00,,BKN038,0.02,VWS V14.00,2013-08-29 20:25:00,
2013-08-29 16:30:00,85.9,65.7,30.03,ENE,67,2.5,3.2,51,0.00,,BKN038,0.02,VWS V14.00,2013-08-29 20:30:00,
2013-08-29 16:35:00,84.2,65.8,30.03,ENE,67,0.0,0.0,54,0.00,,BKN038,0.02,VWS V14.00,2013-08-29 20:35:00,
2013-08-29 16:40:00,83.7,65.8,30.03,ENE,67,0.0,0.0,55,0.00,,BKN038,0.02,VWS V14.00,2013-08-29 20:40:00,
2013-08-29 16:45:00,83.1,65.8,30.03,ENE,67,0.0,2.7,56,0.00,,BKN038,0.02,VWS V14.00,2013-08-29 20:45:00,
2013-08-29 16:50:00,82.4,65.6,30.03,West,280,0.0,0.0,57,0.00,,BKN038,0.02,VWS V14.00,2013-08-29 20:50:00,
2013-08-29 16:55:00,81.7,65.9,30.03,SW,223,3.0,3.2,59,0.00,,BKN038,0.02,VWS V14.00,2013-08-29 20:55:00,
2013-08-29 17:00:00,82.0,66.8,30.03,SSE,151,0.0,0.0,60,0.00,,FEW034,0.02,VWS V14.00,2013-08-29 21:00:00,
2013-08-29 17:05:00,81.3,65.6,30.03,NE,45,2.5,3.2,59,0.00,,FEW034,0.02,VWS V14.00,2013-08-29 21:05:00,
2013-08-29 17:10:00,81.1,65.4,30.03,ENE,60,0.0,0.0,59,0.00,,FEW034,0.02,VWS V14.00,2013-08-29 21:10:00,
2013-08-29 17:15:00,80.9,65.7,30.03,NE,39,0.0,0.0,60,0.00,,FEW034,0.02,VWS V14.00,2013-08-29 21:15:00,
2013-08-29 17:20:00,80.9,66.2,30.03,NW,312,3.0,3.2,61,0.00,,FEW034,0.02,VWS V14.00,2013-08-29 21:20:00,
2013-08-29 17:26:00,80.9,66.2,30.03,NW,312,0.0,0.0,61,0.00,,FEW034,0.02,VWS V14.00,2013-08-29 21:26:00,
2013-08-29 17:31:00,80.7,66.0,30.03,ENE,75,0.0,2.7,61,0.00,,FEW034,0.02,VWS V14.00,2013-08-29 21:31:00,
2013-08-29 17:36:00,80.3,66.2,30.03,ESE,116,3.0,3.2,62,0.00,,FEW034,0.02,VWS V14.00,2013-08-29 21:36:00,
2013-08-29 17:41:00,79.8,66.5,30.03,ESE,116,0.0,0.0,64,0.00,,FEW034,0.02,VWS V14.00,2013-08-29 21:41:00,
2013-08-29 17:46:00,80.0,66.7,30.03,SW,218,3.0,3.2,64,0.00,,FEW034,0.02,VWS V14.00,2013-08-29 21:46:00,
2013-08-29 17:51:00,80.0,66.7,30.03,NE,49,0.0,0.0,64,0.00,,FEW034,0.02,VWS V14.00,2013-08-29 21:51:00,
2013-08-29 17:56:00,79.6,66.8,30.03,NNE,25,0.0,2.7,65,0.00,,FEW034,0.02,VWS V14.00,2013-08-29 21:56:00,
2013-08-29 18:01:00,79.2,66.9,30.03,NW,321,0.0,3.2,66,0.00,,CLR,0.02,VWS V14.00,2013-08-29 22:01:00,
2013-08-29 18:06:00,78.9,66.6,30.03,West,263,0.0,0.0,66,0.00,,CLR,0.02,VWS V14.00,2013-08-29 22:06:00,
2013-08-29 18:11:00,78.7,65.9,30.03,NW,311,3.0,3.2,65,0.00,,CLR,0.02,VWS V14.00,2013-08-29 22:11:00,
2013-08-29 18:16:00,78.5,65.8,30.03,ENE,69,0.0,0.0,65,0.00,,CLR,0.02,VWS V14.00,2013-08-29 22:16:00,
2013-08-29 18:21:00,78.1,65.8,30.03,NNW,329,0.0,3.2,66,0.00,,CLR,0.02,VWS V14.00,2013-08-29 22:21:00,
2013-08-29 18:26:00,78.1,66.3,30.03,NNW,331,0.0,3.2,67,0.00,,CLR,0.02,VWS V14.00,2013-08-29 22:26:00,
2013-08-29 18:31:00,77.9,66.1,30.06,NNW,331,0.0,0.0,67,0.00,,CLR,0.02,VWS V14.00,2013-08-29 22:31:00,
2013-08-29 18:36:00,77.8,66.4,30.06,NNW,331,0.0,0.0,68,0.00,,CLR,0.02,VWS V14.00,2013-08-29 22:36:00,
2013-08-29 18:41:00,77.4,66.4,30.06,NNE,20,2.5,2.7,69,0.00,,CLR,0.02,VWS V14.00,2013-08-29 22:41:00,
2013-08-29 18:47:00,77.2,65.8,30.06,WSW,244,0.0,0.0,68,0.00,,CLR,0.02,VWS V14.00,2013-08-29 22:47:00,
2013-08-29 18:52:00,77.2,65.8,30.06,West,278,0.0,2.7,68,0.00,,CLR,0.02,VWS V14.00,2013-08-29 22:52:00,
2013-08-29 18:57:00,77.2,65.8,30.06,West,278,0.0,0.0,68,0.00,,CLR,0.02,VWS V14.00,2013-08-29 22:57:00,
2013-08-29 19:02:00,77.0,65.7,30.06,NNW,330,0.0,3.2,68,0.00,,CLR,0.02,VWS V14.00,2013-08-29 23:02:00,
2013-08-29 19:07:00,77.0,66.5,30.06,NNW,330,0.0,0.0,70,0.00,,CLR,0.02,VWS V14.00,2013-08-29 23:07:00,
2013-08-29 19:12:00,77.0,66.5,30.06,NNW,330,0.0,0.0,70,0.00,,CLR,0.02,VWS V14.00,2013-08-29 23:12:00,
2013-08-29 19:17:00,76.8,66.7,30.06,NNW,330,0.0,0.0,71,0.00,,CLR,0.02,VWS V14.00,2013-08-29 23:17:00,
2013-08-29 19:22:00,76.6,66.5,30.06,NNE,20,0.0,0.0,71,0.00,,CLR,0.02,VWS V14.00,2013-08-29 23:22:00,
2013-08-29 19:27:00,76.5,65.9,30.06,NNE,20,0.0,0.0,70,0.00,,CLR,0.02,VWS V14.00,2013-08-29 23:27:00,
2013-08-29 19:32:00,76.3,66.2,30.06,NNE,19,0.0,2.7,71,0.00,,CLR,0.02,VWS V14.00,2013-08-29 23:32:00,
2013-08-29 19:37:00,76.1,66.4,30.06,WSW,248,3.0,3.2,72,0.00,,CLR,0.02,VWS V14.00,2013-08-29 23:37:00,
2013-08-29 19:42:00,75.9,66.6,30.06,South,179,0.0,0.0,73,0.00,,CLR,0.02,VWS V14.00,2013-08-29 23:42:00,
2013-08-29 19:47:00,75.9,66.6,30.06,South,179,0.0,2.7,73,0.00,,CLR,0.02,VWS V14.00,2013-08-29 23:47:00,
2013-08-29 19:52:00,75.7,66.4,30.06,South,179,0.0,0.0,73,0.00,,CLR,0.02,VWS V14.00,2013-08-29 23:52:00,
2013-08-29 19:57:00,75.5,65.9,30.06,ENE,78,0.0,0.0,72,0.00,,CLR,0.02,VWS V14.00,2013-08-29 23:57:00,
2013-08-29 20:02:00,75.5,66.3,30.06,SE,126,3.0,3.8,73,0.00,,CLR,0.02,VWS V14.00,2013-08-30 00:02:00,
2013-08-29 20:07:00,75.3,66.1,30.06,SE,128,0.0,0.0,73,0.00,,CLR,0.02,VWS V14.00,2013-08-30 00:07:00,
2013-08-29 20:13:00,75.3,66.5,30.06,SE,128,0.0,0.0,74,0.00,,CLR,0.02,VWS V14.00,2013-08-30 00:13:00,
2013-08-29 20:18:00,75.2,65.9,30.09,SE,128,0.0,0.0,73,0.00,,CLR,0.02,VWS V14.00,2013-08-30 00:18:00,
2013-08-29 20:23:00,75.2,66.3,30.09,SE,128,0.0,0.0,74,0.00,,CLR,0.02,VWS V14.00,2013-08-30 00:23:00,
2013-08-29 20:28:00,75.2,65.9,30.09,SE,128,0.0,0.0,73,0.00,,CLR,0.02,VWS V14.00,2013-08-30 00:28:00,
2013-08-29 20:33:00,74.8,65.6,30.09,SE,128,0.0,0.0,73,0.00,,CLR,0.02,VWS V14.00,2013-08-30 00:33:00,
2013-08-29 20:38:00,74.4,66.4,30.09,SE,128,0.0,0.0,76,0.00,,CLR,0.02,VWS V14.00,2013-08-30 00:38:00,
2013-08-29 20:43:00,74.2,67.3,30.09,ENE,72,2.5,3.2,79,0.00,,CLR,0.02,VWS V14.00,2013-08-30 00:43:00,
2013-08-29 20:48:00,74.1,67.1,30.09,ENE,72,0.0,2.7,79,0.00,,CLR,0.02,VWS V14.00,2013-08-30 00:48:00,
2013-08-29 20:53:00,74.1,67.1,30.09,ENE,72,0.0,2.7,79,0.00,,CLR,0.02,VWS V14.00,2013-08-30 00:53:00,
2013-08-29 20:58:00,73.7,67.1,30.09,ENE,72,0.0,0.0,80,0.00,,CLR,0.02,VWS V14.00,2013-08-30 00:58:00,
2013-08-29 21:03:00,73.7,67.1,30.09,ENE,72,0.0,0.0,80,0.00,,CLR,0.02,VWS V14.00,2013-08-30 01:03:00,
2013-08-29 21:08:00,73.5,67.3,30.09,ENE,72,0.0,0.0,81,0.00,,CLR,0.02,VWS V14.00,2013-08-30 01:08:00,
2013-08-29 21:13:00,73.5,67.7,30.09,ENE,72,0.0,0.0,82,0.00,,CLR,0.02,VWS V14.00,2013-08-30 01:13:00,
2013-08-29 21:18:00,73.3,67.5,30.09,ESE,114,0.0,0.0,82,0.00,,CLR,0.02,VWS V14.00,2013-08-30 01:18:00,
2013-08-29 21:23:00,73.1,67.7,30.09,ESE,114,0.0,0.0,83,0.00,,CLR,0.02,VWS V14.00,2013-08-30 01:23:00,
2013-08-29 21:28:00,72.9,67.5,30.09,ESE,115,0.0,0.0,83,0.00,,CLR,0.02,VWS V14.00,2013-08-30 01:28:00,
2013-08-29 21:33:00,72.8,66.9,30.09,ESE,114,0.0,0.0,82,0.00,,CLR,0.02,VWS V14.00,2013-08-30 01:33:00,
2013-08-29 21:39:00,72.2,67.1,30.09,ESE,114,0.0,0.0,84,0.00,,CLR,0.02,VWS V14.00,2013-08-30 01:39:00,
2013-08-29 21:44:00,72.2,67.1,30.09,ESE,114,0.0,0.0,84,0.00,,CLR,0.02,VWS V14.00,2013-08-30 01:44:00,
2013-08-29 21:49:00,72.0,67.3,30.09,ESE,114,0.0,0.0,85,0.00,,CLR,0.02,VWS V14.00,2013-08-30 01:49:00,
2013-08-29 21:54:00,72.2,67.4,30.09,ESE,114,0.0,0.0,85,0.00,,CLR,0.02,VWS V14.00,2013-08-30 01:54:00,
2013-08-29 21:59:00,72.2,67.4,30.09,ESE,114,0.0,0.0,85,0.00,,CLR,0.02,VWS V14.00,2013-08-30 01:59:00,
2013-08-29 22:04:00,72.2,67.8,30.12,ESE,115,0.0,0.0,86,0.00,,FEW025,0.02,VWS V14.00,2013-08-30 02:04:00,
2013-08-29 22:09:00,72.0,67.6,30.12,ESE,114,0.0,0.0,86,0.00,,FEW025,0.02,VWS V14.00,2013-08-30 02:09:00,
2013-08-29 22:14:00,71.8,67.1,30.12,ESE,114,0.0,0.0,85,0.00,,FEW025,0.02,VWS V14.00,2013-08-30 02:14:00,
2013-08-29 22:19:00,71.8,67.4,30.12,ESE,115,0.0,0.0,86,0.00,,FEW025,0.02,VWS V14.00,2013-08-30 02:19:00,
2013-08-29 22:24:00,72.0,67.6,30.12,ESE,114,0.0,0.0,86,0.00,,FEW025,0.02,VWS V14.00,2013-08-30 02:24:00,
2013-08-29 22:29:00,71.8,67.8,30.12,ESE,114,0.0,0.0,87,0.00,,FEW025,0.02,VWS V14.00,2013-08-30 02:29:00,
2013-08-29 22:34:00,71.6,67.6,30.12,ESE,115,0.0,0.0,87,0.00,,FEW025,0.02,VWS V14.00,2013-08-30 02:34:00,
2013-08-29 22:39:00,71.6,67.6,30.12,ESE,114,0.0,0.0,87,0.00,,FEW025,0.02,VWS V14.00,2013-08-30 02:39:00,
2013-08-29 22:44:00,71.4,67.4,30.12,ESE,114,0.0,0.0,87,0.00,,FEW025,0.02,VWS V14.00,2013-08-30 02:44:00,
2013-08-29 22:49:00,71.4,67.7,30.12,ESE,115,0.0,0.0,88,0.00,,FEW025,0.02,VWS V14.00,2013-08-30 02:49:00,
2013-08-29 22:54:00,71.3,67.5,30.12,ESE,115,0.0,0.0,88,0.00,,FEW025,0.02,VWS V14.00,2013-08-30 02:54:00,
2013-08-29 22:59:00,71.1,67.3,30.12,ESE,114,0.0,0.0,88,0.00,,FEW025,0.00,VWS V14.00,2013-08-30 02:59:00,
2013-08-29 23:05:00,71.1,67.7,30.12,ESE,115,0.0,0.0,89,0.00,,,0.02,VWS V14.00,2013-08-30 03:05:00,
2013-08-29 23:10:00,70.9,67.2,30.12,ESE,115,0.0,0.0,88,0.00,,,0.02,VWS V14.00,2013-08-30 03:10:00,
2013-08-29 23:15:00,70.9,67.2,30.12,ESE,114,0.0,0.0,88,0.00,,,0.02,VWS V14.00,2013-08-30 03:15:00,
2013-08-29 23:20:00,70.9,67.2,30.12,ESE,114,0.0,0.0,88,0.00,,,0.02,VWS V14.00,2013-08-30 03:20:00,
2013-08-29 23:25:00,70.7,67.3,30.12,ESE,114,0.0,0.0,89,0.00,,,0.02,VWS V14.00,2013-08-30 03:25:00,
2013-08-29 23:30:00,70.5,67.1,30.12,ESE,115,0.0,0.0,89,0.00,,,0.02,VWS V14.00,2013-08-30 03:30:00,
2013-08-29 23:35:00,70.3,66.9,30.12,ESE,115,0.0,0.0,89,0.00,,,0.02,VWS V14.00,2013-08-30 03:35:00,
2013-08-29 23:40:00,70.2,66.8,30.12,ESE,115,0.0,0.0,89,0.00,,,0.02,VWS V14.00,2013-08-30 03:40:00,
2013-08-29 23:45:00,70.0,66.6,30.12,ESE,115,0.0,0.0,89,0.00,,,0.02,VWS V14.00,2013-08-30 03:45:00,
2013-08-29 23:50:00,70.0,66.6,30.12,ESE,114,0.0,0.0,89,0.00,,,0.02,VWS V14.00,2013-08-30 03:50:00,
2013-08-29 23:55:00,70.0,66.9,30.12,ESE,115,0.0,0.0,90,0.00,,,0.02,VWS V14.00,2013-08-30 03:55:00,